Wind_Speed
31 39 43 38 36 37 36 13 4 18 18 4 2 4 4 7 4 5 4 4 3 5 3 1 1 3 2 8 10 10 4 4 4 11 5 5 4 5 5 3 4 2 3 3
37 36 34 37 37 38 22 9 10 11 10 4 1 2 3 3 4 3 4 3 3 2 4 2 4 3 9 13 6 3 5 3 5 7 2 1 3 2 1 2 2 3 2 3
31 32 33 34 35 30 15 9 3 4 3 4 6 5 3 4 4 4 4 3 4 3 2 2 2 3 5 12 4 13 0 2 7 5 7 8 6 6 3 3 3 4 4 5
26 28 30 31 33 23 9 4 3 6 3 1 5 4 3 5 4 3 3 2 3 4 0 3 3 4 6 4 3 7 1 2 2 5 17 14 17 11 10 12 7 4 4 5
22 25 28 27 27 19 4 6 5 6 5 16 7 2 2 5 3 4 0 4 2 5 5 6 4 3 2 3 6 4 1 3 3 3 3 13 20 21 17 16 13 11 11 7
20 24 23 24 24 16 5 9 14 10 3 3 4 4 5 5 6 3 4 3 1 2 7 13 19 18 14 9 4 3 2 4 3 3 11 5 8 15 15 15 16 5 5 4
21 21 23 24 21 15 10 18 10 7 2 4 4 5 3 4 3 5 3 2 1 3 19 20 3 6 11 13 11 11 4 3 2 3 2 5 1 7 9 18 13 10 9 6
19 20 23 19 16 13 14 17 8 6 3 5 5 7 5 6 4 2 2 1 5 13 10 4 2 3 2 2 2 4 2 3 0 2 4 3 2 6 5 5 8 10 5 5
20 20 20 20 17 16 16 15 12 10 11 1 8 5 4 3 1 2 2 1 5 8 2 3 2 1 0 3 7 3 4 10 1 1 2 2 2 9 7 9 3 10 9 7
18 20 20 20 19 16 14 14 14 14 10 5 7 4 4 4 3 1 2 5 5 8 2 2 2 1 2 2 4 5 4 3 6 4 3 3 7 13 4 2 1 9 11 14
17 21 21 21 18 15 13 15 13 11 8 9 8 7 7 5 3 3 1 3 3 4 3 2 1 1 1 2 2 3 3 4 3 2 2 1 18 3 2 6 8 9 10 10
14 21 21 21 18 15 12 14 12 13 8 9 9 6 4 4 4 4 2 3 1 1 3 1 2 1 2 1 1 3 2 2 2 4 2 3 9 13 10 7 9 8 10 10
15 21 21 20 18 15 12 13 13 14 16 13 10 8 9 5 3 2 3 3 2 2 2 2 2 3 1 2 0 2 2 2 3 3 4 6 9 10 11 9 10 8 6 6
17 20 19 18 18 15 13 14 15 11 10 5 4 8 7 6 5 5 4 4 3 2 2 2 1 2 1 1 2 2 1 3 3 4 8 11 8 11 12 12 9 8 7 4
19 20 18 17 17 14 13 12 12 11 5 5 7 11 8 8 7 6 5 4 4 2 2 2 0 0 2 1 3 2 1 3 1 3 14 6 10 13 11 10 10 7 6 7
21 21 18 18 18 18 17 6 7 10 14 6 2 6 7 6 5 5 3 4 4 2 1 0 1 0 1 2 1 3 3 1 4 5 12 8 17 14 10 11 11 9 8 6
21 21 20 19 18 18 5 5 13 11 10 5 4 4 6 8 4 3 2 1 0 0 1 0 1 1 2 2 2 9 5 4 9 15 19 15 16 10 11 9 9 7 6 6
21 21 20 18 16 13 8 8 15 11 7 5 3 1 4 7 4 2 2 1 1 1 1 0 1 0 1 1 4 13 10 12 15 13 3 10 12 16 14 10 8 6 6 6
20 18 18 17 14 6 8 13 12 8 6 4 2 5 3 7 3 3 2 1 2 0 1 1 1 1 3 4 16 18 15 13 12 9 8 11 10 14 13 10 7 4 5 5
21 23 7 6 9 22 16 5 2 2 3 3 2 4 2 5 3 2 2 1 1 1 2 1 1 3 3 7 12 17 18 14 15 16 15 15 15 16 14 11 8 6 6 7
20 4 4 20 19 6 3 3 2 2 2 4 4 5 3 4 3 2 2 2 1 1 2 2 2 3 4 8 15 16 16 14 15 10 6 11 9 14 13 12 10 9 8 6
7 12 20 15 4 3 3 2 3 2 4 7 7 7 3 5 3 4 2 2 2 2 1 1 3 3 8 14 17 19 18 14 15 12 9 12 10 10 11 11 11 10 8 5
26 7 5 5 2 2 5 6 2 3 6 10 8 3 6 4 2 5 2 3 3 2 1 3 4 5 13 18 19 20 19 16 15 14 12 13 11 10 11 12 11 8 6 4
3 3 3 4 3 2 3 2 2 4 5 18 20 6 3 3 4 1 4 3 2 3 1 4 3 14 18 19 19 19 18 18 15 14 15 15 12 12 12 10 8 6 4 2
3 2 2 3 1 2 2 1 1 2 16 24 10 6 3 3 3 1 3 4 2 5 4 3 5 10 21 23 22 18 15 16 15 14 16 15 13 12 13 12 9 6 3 2
3 3 2 2 1 4 3 2 3 9 23 15 3 3 3 1 3 3 4 4 5 4 3 5 6 11 20 23 21 16 13 13 14 15 15 15 13 12 11 9 7 5 4 3
2 3 3 3 2 3 3 5 3 17 17 2 4 4 5 3 2 1 3 4 4 2 6 7 5 9 16 19 19 17 15 14 15 16 15 15 15 13 10 8 6 5 5 4
Wind_Direction
161 157 155 153 163 159 150 140 103 157 149 112 101 150 161 110 135 100 101 111 149 181 181 212 241 232 231 282 319 311 290 283 277 274 277 231 241 233 196 153 275 95 126 68
154 156 150 161 157 153 142 100 100 164 169 126 142 201 106 107 120 139 123 147 165 116 186 71 207 240 249 282 320 285 338 317 294 331 10 273 291 272 259 145 66 25 84 104
145 152 159 158 154 151 143 135 109 108 164 136 128 118 120 114 108 112 121 130 91 79 11 246 260 282 283 321 276 301 22 96 58 26 319 297 271 305 305 103 74 103 43 76
148 154 155 155 157 157 132 93 137 151 178 198 105 101 124 119 123 105 139 30 169 167 346 340 232 250 296 325 319 331 84 248 269 74 32 22 47 37 70 75 43 67 78 72
149 152 157 158 161 158 128 120 132 109 96 130 103 54 155 122 125 127 158 145 258 183 201 187 239 213 241 261 319 311 70 295 294 328 81 39 41 32 48 73 75 87 103 85
158 157 159 162 167 164 109 124 132 133 45 94 101 189 154 161 122 62 134 176 209 232 235 262 267 256 244 257 303 297 318 335 324 343 333 337 29 18 41 55 44 47 65 66
163 164 162 167 173 167 148 146 132 105 90 103 140 139 111 126 115 144 167 139 212 290 310 309 300 223 231 234 255 218 304 292 259 190 265 44 278 22 70 64 46 70 90 100
167 166 165 164 168 168 172 154 122 111 94 112 84 110 108 101 77 88 223 244 316 320 321 9 23 9 123 180 223 62 206 277 131 118 56 116 43 19 347 7 54 32 49 168
166 166 161 158 157 160 171 157 130 114 121 140 119 103 102 111 76 342 254 303 328 350 53 52 74 86 318 335 332 20 34 9 174 86 103 151 60 325 316 303 67 35 37 18
169 169 164 163 161 159 161 144 132 130 101 122 128 106 122 120 116 160 326 345 0 2 35 66 70 134 315 39 7 339 350 4 18 21 99 94 345 317 272 283 80 64 63 56
168 172 169 166 166 161 164 142 134 130 99 122 118 114 126 128 123 128 333 52 356 31 60 95 205 99 62 90 83 346 40 327 24 340 71 90 351 354 61 104 78 102 92 89
169 171 169 169 168 165 167 144 141 122 103 124 116 105 137 137 109 125 80 116 130 124 83 20 99 56 22 74 114 19 45 54 83 18 91 59 26 64 84 102 106 98 106 105
166 168 167 170 171 170 170 153 147 141 109 101 110 93 85 128 166 142 97 80 86 84 59 92 166 81 143 59 131 125 68 66 88 164 141 114 90 100 95 85 87 105 108 104
161 162 166 168 168 166 153 147 146 142 116 108 104 115 93 92 118 105 80 97 100 53 54 90 119 105 54 113 144 110 243 9 112 84 120 115 113 128 122 110 108 118 120 99
155 162 165 159 161 158 155 151 149 147 121 130 120 120 88 98 111 109 96 83 69 71 68 46 49 180 89 47 79 80 40 140 173 217 168 128 157 154 148 135 134 135 141 133
159 161 156 153 153 152 142 97 142 143 125 105 111 119 140 120 118 107 71 72 59 50 87 240 303 57 91 92 160 125 143 134 150 141 155 152 151 156 158 146 139 141 146 133
157 158 159 154 157 160 146 137 149 149 131 100 88 119 164 167 162 186 145 81 85 81 135 19 332 44 73 100 194 162 151 147 138 143 132 126 152 163 160 158 142 138 133 128
150 156 156 155 149 145 99 102 142 136 104 84 106 82 135 169 187 158 121 150 147 130 117 198 267 35 73 245 161 157 147 145 142 154 154 170 171 164 164 165 156 147 149 145
142 142 148 146 133 101 113 124 130 101 83 97 97 148 195 168 145 132 128 138 39 197 88 238 124 307 226 192 170 171 172 172 168 167 164 158 169 173 176 178 177 194 174 160
134 124 114 113 140 127 125 110 123 80 56 89 123 146 156 156 138 88 128 73 119 81 261 218 104 257 211 197 200 181 173 184 177 165 167 176 181 186 189 193 204 212 192 178
144 104 78 133 134 114 87 95 111 140 125 171 190 184 133 165 111 179 189 171 313 75 268 139 294 269 218 192 181 181 185 190 192 203 218 201 208 191 195 202 204 192 182 172
137 122 126 124 126 93 106 134 134 197 195 173 163 177 152 146 145 116 165 113 32 216 312 90 275 251 184 174 178 178 184 183 189 197 192 184 189 198 203 199 192 185 175 160
125 105 124 154 147 94 150 169 178 194 177 172 159 163 153 129 124 78 103 77 218 315 80 234 232 183 180 179 180 181 189 195 197 199 201 199 195 194 191 189 181 173 169 166
86 116 110 150 197 240 189 204 170 172 177 159 152 120 132 105 65 133 91 242 65 38 86 241 249 204 184 180 182 184 186 193 204 210 204 200 201 190 181 177 177 175 178 190
80 84 116 192 232 143 147 67 26 109 153 153 119 79 96 25 81 135 93 38 260 199 228 234 320 202 187 185 185 185 194 201 202 202 196 195 194 190 188 181 184 188 198 240
43 63 69 327 138 116 107 103 116 146 155 151 113 108 65 343 135 83 210 154 224 247 224 295 306 202 195 196 197 199 201 203 200 195 195 193 190 189 187 190 196 207 226 235
63 55 40 46 70 77 67 83 116 164 168 148 115 87 192 118 71 288 185 207 221 239 300 311 274 213 201 198 200 200 201 203 198 194 191 189 189 189 193 201 212 226 234 248
Height
1370 1380 1383 1394 1412 1422 1430 1434 1445 1452 1454 1460 1462 1468 1465 1465 1470 1472 1475 1480 1483 1491 1491 1492 1493 1488 1479 1474 1473 1468 1462 1456 1451 1435 1429 1432 1433 1430 1432 1445 1434 1433 1448 1466
1376 1385 1391 1403 1411 1420 1426 1434 1444 1453 1452 1458 1465 1463 1463 1465 1470 1473 1475 1480 1482 1485 1492 1498 1495 1485 1473 1473 1471 1468 1464 1456 1447 1438 1433 1431 1429 1425 1426 1428 1430 1439 1444 1463
1383 1391 1400 1406 1412 1420 1425 1431 1444 1450 1452 1452 1454 1460 1464 1467 1469 1471 1475 1479 1481 1487 1493 1491 1493 1484 1472 1468 1466 1465 1462 1464 1465 1465 1457 1445 1438 1428 1425 1425 1442 1453 1459 1469
1391 1398 1403 1409 1414 1420 1424 1427 1437 1441 1452 1453 1452 1459 1462 1466 1469 1472 1475 1479 1480 1486 1494 1491 1490 1483 1474 1466 1465 1464 1464 1461 1461 1462 1461 1451 1446 1438 1430 1435 1447 1452 1470 1474
1396 1400 1406 1412 1416 1421 1425 1426 1432 1439 1445 1448 1454 1460 1464 1465 1470 1472 1476 1477 1478 1480 1482 1480 1484 1480 1476 1473 1467 1466 1464 1463 1459 1458 1455 1459 1456 1455 1450 1453 1461 1468 1474 1480
1399 1404 1410 1414 1419 1422 1423 1426 1431 1436 1447 1451 1456 1461 1463 1466 1469 1474 1474 1476 1477 1477 1477 1473 1471 1472 1473 1472 1474 1470 1466 1465 1461 1461 1452 1446 1459 1472 1469 1467 1471 1469 1471 1484
1403 1409 1412 1416 1421 1423 1426 1428 1431 1434 1450 1451 1455 1458 1461 1466 1468 1472 1475 1475 1475 1473 1470 1465 1463 1464 1467 1470 1468 1467 1466 1463 1460 1458 1457 1466 1481 1480 1479 1477 1481 1482 1485 1488
1405 1410 1413 1418 1422 1425 1429 1430 1432 1434 1448 1452 1456 1459 1463 1467 1469 1472 1474 1473 1474 1470 1467 1465 1463 1466 1464 1465 1464 1464 1465 1464 1456 1459 1464 1476 1477 1483 1482 1479 1487 1488 1487 1488
1408 1412 1415 1422 1425 1427 1430 1431 1432 1436 1443 1455 1456 1460 1463 1468 1471 1474 1472 1472 1471 1470 1470 1471 1468 1474 1469 1468 1466 1463 1463 1464 1456 1460 1457 1470 1486 1485 1484 1483 1484 1490 1490 1490
1409 1413 1418 1424 1425 1428 1430 1433 1435 1438 1445 1454 1457 1460 1464 1468 1471 1474 1472 1472 1471 1470 1475 1477 1477 1474 1470 1475 1474 1473 1470 1469 1469 1465 1469 1480 1489 1484 1482 1478 1496 1491 1491 1491
1410 1416 1420 1424 1427 1429 1433 1435 1437 1440 1445 1454 1457 1460 1464 1468 1470 1473 1473 1475 1474 1473 1480 1479 1480 1479 1476 1476 1477 1479 1482 1479 1478 1474 1473 1479 1488 1482 1482 1493 1493 1494 1494 1493
1413 1416 1421 1425 1428 1432 1435 1436 1440 1442 1447 1454 1459 1462 1465 1467 1469 1470 1472 1474 1474 1475 1479 1481 1480 1482 1481 1478 1487 1480 1483 1485 1484 1489 1492 1496 1493 1492 1492 1493 1494 1495 1495 1496
1414 1419 1422 1426 1430 1434 1436 1437 1441 1445 1450 1457 1461 1464 1466 1467 1468 1471 1472 1474 1474 1475 1475 1476 1480 1479 1479 1481 1484 1480 1484 1484 1487 1491 1497 1497 1496 1496 1496 1496 1496 1496 1497 1498
1416 1419 1423 1428 1432 1435 1437 1440 1443 1446 1450 1457 1465 1465 1468 1468 1470 1472 1473 1473 1474 1475 1475 1476 1478 1479 1478 1480 1481 1484 1487 1486 1490 1493 1496 1498 1499 1499 1499 1499 1500 1500 1501 1501
1417 1422 1426 1430 1433 1437 1439 1443 1445 1448 1451 1456 1463 1467 1469 1470 1472 1473 1474 1475 1475 1475 1476 1477 1479 1477 1478 1480 1482 1485 1486 1487 1489 1494 1490 1493 1497 1500 1501 1502 1503 1504 1504 1505
1420 1424 1429 1432 1435 1439 1442 1446 1449 1449 1451 1455 1465 1468 1470 1472 1474 1475 1475 1475 1476 1476 1477 1477 1477 1477 1479 1486 1488 1485 1485 1486 1486 1488 1491 1492 1496 1500 1502 1503 1504 1505 1506 1507
1422 1426 1430 1434 1437 1440 1443 1446 1447 1450 1452 1455 1465 1468 1471 1472 1474 1476 1476 1476 1476 1477 1477 1477 1477 1478 1478 1485 1487 1483 1485 1486 1487 1489 1491 1496 1498 1499 1501 1503 1504 1505 1506 1507
1424 1428 1432 1437 1440 1443 1446 1446 1448 1451 1453 1457 1465 1470 1471 1473 1474 1475 1475 1476 1477 1477 1477 1478 1478 1478 1478 1483 1480 1482 1484 1487 1489 1490 1491 1493 1496 1498 1501 1503 1504 1505 1505 1506
1426 1430 1435 1440 1443 1445 1448 1450 1452 1453 1457 1459 1464 1467 1473 1472 1473 1474 1476 1476 1479 1478 1477 1478 1479 1480 1481 1474 1477 1480 1483 1485 1488 1490 1492 1494 1496 1498 1500 1502 1502 1504 1505 1505
1429 1434 1437 1443 1446 1447 1451 1455 1456 1456 1458 1461 1463 1465 1469 1471 1472 1474 1477 1476 1479 1481 1479 1478 1479 1477 1472 1472 1474 1477 1481 1484 1487 1489 1492 1493 1495 1497 1499 1501 1502 1503 1504 1506
1431 1434 1438 1442 1447 1449 1452 1455 1456 1459 1460 1461 1463 1464 1467 1470 1472 1474 1476 1478 1479 1482 1481 1480 1482 1474 1469 1470 1472 1477 1480 1483 1485 1487 1489 1491 1493 1494 1497 1499 1502 1503 1504 1505
1431 1434 1441 1445 1448 1451 1454 1454 1457 1457 1457 1459 1461 1464 1467 1468 1469 1471 1476 1478 1481 1483 1479 1479 1478 1469 1466 1469 1472 1475 1479 1482 1484 1487 1488 1490 1492 1495 1497 1499 1501 1502 1503 1503
1434 1438 1442 1445 1450 1453 1453 1453 1453 1453 1453 1456 1458 1463 1465 1467 1469 1472 1474 1484 1487 1479 1480 1486 1472 1465 1466 1468 1471 1475 1478 1481 1483 1485 1488 1490 1492 1494 1496 1498 1499 1500 1501 1502
1436 1439 1445 1447 1448 1448 1446 1446 1446 1447 1447 1451 1456 1460 1462 1466 1470 1474 1480 1480 1480 1494 1492 1478 1464 1461 1464 1467 1471 1474 1477 1480 1482 1484 1486 1489 1491 1493 1495 1497 1499 1500 1500 1501
1438 1440 1441 1443 1444 1444 1444 1445 1446 1446 1448 1453 1457 1461 1463 1468 1473 1474 1478 1484 1487 1482 1478 1467 1459 1459 1463 1466 1470 1474 1476 1479 1481 1483 1485 1488 1491 1493 1494 1496 1497 1498 1499 1500
1441 1442 1443 1443 1443 1444 1445 1446 1447 1448 1452 1454 1457 1462 1469 1472 1472 1475 1481 1479 1482 1471 1462 1459 1458 1459 1462 1466 1470 1473 1476 1478 1480 1483 1485 1488 1490 1492 1494 1495 1496 1497 1498 1499
1442 1444 1444 1444 1445 1445 1446 1447 1449 1451 1454 1455 1457 1467 1469 1468 1475 1476 1472 1475 1464 1458 1458 1457 1458 1459 1462 1466 1470 1473 1475 1477 1479 1482 1484 1487 1489 1491 1492 1494 1495 1496 1497 1498